Houlton, ME

2:58 AM EDT on August 27, 2016 (GMT -0400)
Houlton International

Weather History for KHUL - November, 2013

Change the Weather History Date:

Friday, November 8, 2013

  Actual Average Record
Temperature  
Mean Temperature 36 °F 36 °F  
Max Temperature 41 °F 44 °F 65 °F (1938)
Min Temperature 31 °F 27 °F 6 °F (2002)
Degree Days  
Heating Degree Days 29 29  
Month to date heating degree days 209 224  
Since 1 July heating degree days 1220 1360  
Cooling Degree Days 0 0  
Month to date cooling degree days 0 0  
Year to date cooling degree days 198 191  
Moisture  
Dew Point 25 °F    
Average Humidity 66    
Maximum Humidity 82    
Minimum Humidity 50    
Precipitation  
Precipitation T in 0.14 in 1.11 in (1995)
Month to date precipitation 1.05 1.11  
Year to date precipitation 37.21 33.79  
Sea Level Pressure  
Sea Level Pressure 29.70 in    
Wind  
Wind Speed 8 mph (West)    
Max Wind Speed 17 mph    
Max Gust Speed 26 mph    
Visibility 10 miles    
Events      
T = Trace of Precipitation, MM = Missing Value Source: NWS Daily Summary

Daily Weather History Graph

Daily Weather History Graph

Search for Another Location

Airport or City:

Trip Planner

Search our weather history database for the weather conditions in past years. The results will help you decide how hot, cold, wet, or windy it might be!

Date:

Astronomy

Nov. 08, 2013 Rise Set
Actual Time 6:22 AM EST 4:06 PM EST
Civil Twilight 5:50 AM EST 4:38 PM EST
Nautical Twilight 5:14 AM EST 5:14 PM EST
Astronomical Twilight 4:39 AM EST 5:49 PM EST
Moon 11:15 AM EST (11/8) 9:24 PM EST (11/8)
Length of Visible Light 10h 48m
Length of Day
9h 44m
Waxing Crescent, 33% of the Moon is Illuminated
Nov 8
Waxing Crescent
Nov 10
First Quarter
Nov 17
Full
Nov 25
Last Quarter
Dec 2
New

Hourly Weather History & Observations

Time (EST) Temp. Windchill Dew Point Humidity Pressure Visibility Wind Dir Wind Speed Gust Speed Precip Events Conditions
12:53 AM 34.0 °F 28.0 °F 28.9 °F 82% 29.65 in 10.0 mi WNW 6.9 mph - N/A   Overcast
1:53 AM 33.1 °F 28.7 °F 27.0 °F 78% 29.65 in 10.0 mi West 4.6 mph - N/A   Mostly Cloudy
2:53 AM 30.9 °F 26.2 °F 25.0 °F 79% 29.66 in 10.0 mi West 4.6 mph - N/A   Clear
3:53 AM 32.0 °F - 25.0 °F 75% 29.67 in 10.0 mi Calm Calm - N/A   Overcast
4:53 AM 33.1 °F 27.7 °F 26.1 °F 75% 29.68 in 10.0 mi West 5.8 mph - N/A   Overcast
5:53 AM 33.1 °F 27.7 °F 26.1 °F 75% 29.68 in 10.0 mi WSW 5.8 mph - N/A   Overcast
6:53 AM 33.1 °F 26.1 °F 26.1 °F 75% 29.69 in 10.0 mi West 8.1 mph - N/A   Overcast
7:53 AM 34.0 °F 27.2 °F 26.1 °F 73% 29.70 in 10.0 mi West 8.1 mph - N/A   Overcast
8:53 AM 35.1 °F 28.6 °F 27.0 °F 72% 29.70 in 10.0 mi WSW 8.1 mph - N/A   Overcast
9:53 AM 37.9 °F 32.1 °F 27.0 °F 65% 29.69 in 10.0 mi West 8.1 mph 16.1 mph N/A   Mostly Cloudy
10:53 AM 39.9 °F 32.9 °F 26.1 °F 58% 29.68 in 10.0 mi West 11.5 mph 19.6 mph N/A   Mostly Cloudy
11:53 AM 39.9 °F 32.5 °F 23.0 °F 51% 29.67 in 10.0 mi West 12.7 mph - N/A   Overcast
12:53 PM 39.9 °F 32.5 °F 24.1 °F 53% 29.66 in 10.0 mi West 12.7 mph - N/A   Overcast
1:53 PM 39.9 °F 31.8 °F 23.0 °F 51% 29.66 in 10.0 mi West 15.0 mph 23.0 mph N/A   Overcast
2:53 PM 37.9 °F 29.6 °F 23.0 °F 55% 29.68 in 10.0 mi West 13.8 mph 19.6 mph N/A   Overcast
3:53 PM 36.0 °F 28.0 °F 24.1 °F 62% 29.70 in 10.0 mi West 11.5 mph 16.1 mph 0.00 in   Overcast
4:53 PM 35.1 °F 31.0 °F 24.1 °F 64% 29.71 in 10.0 mi West 4.6 mph - N/A   Overcast
5:53 PM 36.0 °F 30.3 °F 24.1 °F 62% 29.73 in 10.0 mi West 6.9 mph - N/A   Overcast
6:53 PM 34.0 °F 28.0 °F 24.1 °F 67% 29.73 in 10.0 mi West 6.9 mph - N/A   Partly Cloudy
7:53 PM 33.1 °F 26.1 °F 24.1 °F 70% 29.75 in 10.0 mi WSW 8.1 mph - N/A   Overcast
8:53 PM 33.1 °F 25.5 °F 24.1 °F 70% 29.76 in 10.0 mi West 9.2 mph - N/A   Clear
9:53 PM 32.0 °F 24.8 °F 23.0 °F 69% 29.76 in 10.0 mi West 8.1 mph - N/A   Scattered Clouds
10:53 PM 32.0 °F 25.6 °F 23.0 °F 69% 29.76 in 10.0 mi West 6.9 mph - N/A   Clear
11:53 PM 32.0 °F 23.6 °F 21.9 °F 66% 29.77 in 10.0 mi West 10.4 mph 17.3 mph N/A   Clear